sat.trackr.live / text

‹ back to catalog

STARLINK-34496

NORAD 64476 · 2025-133E

PAYLOAD ACTIVE UNKNOWN

§ Identity

Operator
Country
US
Launch date
2025-06-23
Launch site
AFETR
Launch vehicle
Mass (kg)
RCS (m²)

Purposes: comms

External: N2YO · Heavens-Above · Gunter

§ Orbital elements

Epoch: 2026-05-25T04:35:02.444064Z

Period
93.79 min
Inclination
53.1598°
Eccentricity
0.0001043
Mean motion
15.35414975 rev/d
Perigee alt
459.0 km
Apogee alt
460.4 km
Semi-major
6,837.8 km
B*
6.8819e-4
RAAN
119.1490°
Arg perigee
89.0264°
Mean anomaly
271.0859°
Rev number
5,292

§ Raw data

STARLINK-344961 64476U 25133E   26145.19100051  .00023712  00000+0  68819-3 0  99952 64476  53.1598 119.1490 0001043  89.0264 271.0859 15.35414975 52926

JSON: /api/v1/satellites/64476 · /tle

For live sub-satellite position, see the globe view (requires WebGL).

§ Visibility from observer

Set your observer location to see the next 7 days of passes ≥ 10°. The values pass through the URL so the page stays shareable.

No JS? Fill the form by hand. The geolocation button needs JavaScript.